Location: Mahannah Oil Field
(37.4664°N, 96.6003°W)
Time: 01:21:31
(UTC+00:00)

deb Explorer IX - Pass Details

Date: 24 January 2021
Orbit: 537 x 1102 km, 38.8° (Epoch: 25 February)

Event Time Altitude Azimuth Distance (km) Brightness Sun altitude
Rises 06:36:46 0° 272° (W) 2,962 - -71.7°
Reaches altitude 10° 06:40:50 10° 239° (WSW) 1,927 - -71.7°
Maximum altitude 06:42:11 11° 220° (SW) 1,809 - -71.7°
Drops below altitude 10° 06:43:32 10° 202° (SSW) 1,861 - -71.6°
Sets 06:47:14 0° 167° (SSE) 2,689 - -71.6°
